Vertical_Velocity
-1 -0 2 3 2 -1 2 -3 -3 -4 2 2 2 1 -2 -0 -1 -6 -7 -14 1 3 2 6 2 6 11 8 9 6 -3 -10 -16 -15 -2 2 2 5 4 -0 -3 -4 -6 -1
-2 -1 1 -0 -1 0 0 -2 0 -1 0 5 6 3 -3 5 8 -0 0 3 4 -5 -6 4 -3 0 5 5 3 3 -1 -3 -4 -6 -6 -3 -2 -5 -1 5 5 3 1 -1
-3 0 -1 -7 3 1 1 -0 1 -2 -1 0 -1 -0 2 1 -0 3 0 0 -4 1 9 1 -4 -11 -7 -5 -5 -5 -1 2 -1 -2 -1 -5 -4 -2 -5 -6 -4 -1 -1 -0
-3 -4 -9 -17 -0 1 -2 2 -0 -1 -0 2 3 3 7 1 4 2 2 1 2 6 -5 -1 -3 -1 -2 3 3 -1 -1 -4 -5 -3 -4 -3 -5 -2 2 -2 -5 -7 -3 -2
-6 -1 -10 -4 0 -2 1 1 1 2 -1 0 -3 -0 -4 -5 3 -1 -3 -3 -1 0 -1 -5 -0 2 -4 -6 1 3 4 -1 -1 -4 -7 -8 -5 -3 3 1 3 -5 -6 -5
-2 -3 -2 -2 0 1 0 -2 1 2 -0 1 -1 -3 -6 7 -2 -8 -2 -5 -7 -4 -6 -4 -3 -1 -6 -4 -7 -1 1 -3 -1 -0 -0 5 1 -2 -1 1 -3 -2 -4 -5
0 -1 -7 -1 -0 -0 -12 -16 -1 3 1 1 -1 -7 -10 -4 -2 7 -1 -8 -8 -5 -3 1 0 -1 -3 -3 1 -3 -5 -5 1 2 -5 1 1 1 -2 -0 0 -1 -3 -3
-2 -2 -8 2 -7 -4 -11 -7 1 -3 -1 1 1 2 5 1 -2 -3 3 6 5 0 -5 -6 -7 -7 -5 -1 5 5 2 -2 -2 -3 -6 -7 7 1 1 -0 -1 2 -2 -6
-11 -12 -3 6 3 -0 6 6 -4 7 -3 4 3 -1 -0 -0 -1 -3 -1 -1 -2 -2 -5 0 1 1 -5 -6 -8 -9 -5 -3 3 4 -0 -4 -9 12 2 3 -3 -2 -4 -3
-6 -6 -1 -6 -9 4 3 3 -3 -1 5 5 4 2 2 1 1 -2 -6 -5 -4 -6 -4 -3 -4 -2 -2 0 -3 -3 -6 -7 -1 -1 -6 0 -1 -1 5 1 1 -1 -3 -2
-4 -5 -2 0 -0 -4 -4 2 8 5 2 2 1 -3 -1 -1 -2 -2 -1 -3 -3 -3 -2 -2 -0 2 1 1 3 5 1 -4 -7 -4 2 -4 0 -2 2 4 6 8 -3 -0
-8 -5 3 -7 -2 6 4 -1 -0 -2 -8 -1 0 -1 -1 -1 0 1 -3 -3 -3 -2 -2 -2 -3 -1 -1 -4 -1 -0 -1 -1 -1 -3 -6 -2 -3 -4 5 2 3 -1 5 -0
-10 -1 1 -4 16 1 -1 -1 0 1 2 -5 -1 2 2 1 0 -4 -1 -0 -0 -4 -3 -1 -2 -3 -0 1 2 1 -2 -1 -3 -0 -3 -4 -3 1 -7 -1 -1 -4 1 1
8 10 -0 4 -3 -4 -1 1 0 1 1 -3 -2 2 4 1 -3 -0 -0 -1 -1 -1 -2 -2 -4 -1 1 -0 -2 -3 -2 2 1 -0 2 -0 -1 -3 -3 -1 -1 -4 1 2
5 -0 -0 -3 -0 -0 0 -2 0 -2 -3 -1 -1 -0 -1 -1 -1 -1 -1 -1 -2 -2 -2 0 0 -1 -1 -1 -2 -3 -2 -2 0 0 -0 -1 -0 2 1 -2 -3 -2 -4 3
-4 2 5 -1 -2 1 -0 -0 0 -3 -3 -3 -2 -0 -0 2 1 -1 -1 -1 -2 -4 0 1 -0 -0 -0 -1 -1 -3 -1 1 2 2 0 1 1 0 1 0 -3 -3 -4 -3
3 -1 -1 -0 1 1 -1 -1 1 0 -3 -2 -1 1 -0 -1 0 -0 -1 0 -0 -1 3 1 -2 0 0 -0 3 0 -1 -1 2 1 2 2 1 2 1 5 -0 -0 -3 -2
5 -0 -3 1 0 -0 -2 -2 -1 1 1 -0 -1 2 -0 1 -1 -2 -3 -3 -0 -0 1 2 -0 -1 2 2 1 1 1 2 3 3 3 2 1 3 2 5 4 2 -1 -1
-1 -2 -1 0 1 0 -4 -3 -1 -0 0 -0 -2 0 3 4 1 -0 -1 -2 -2 -6 -5 -1 -2 1 1 1 0 -2 0 2 0 1 3 3 2 3 3 2 1 2 1 6
-1 -0 -2 2 -1 -3 -2 -1 -2 -2 -0 1 -1 -1 -1 1 2 -0 -0 -1 -0 2 -1 -1 -2 -0 0 -2 1 2 2 -2 0 2 1 1 2 2 1 0 2 5 5 6
-3 -2 2 -1 -1 -0 -2 -1 -1 -0 -2 -0 -0 0 1 0 2 2 -3 -3 -1 -1 1 0 -1 -0 -0 2 0 1 -1 -3 -0 0 0 1 2 -2 0 2 4 4 3 1
3 2 -2 -3 -3 -2 1 -2 -1 -0 -0 -1 -1 -0 0 -0 -0 0 3 1 -3 0 -1 1 1 1 -0 0 0 -1 -2 -0 1 1 1 -0 1 1 3 2 1 0 -1 3
-0 2 3 3 3 -0 -3 2 -1 -1 1 1 -1 -2 -1 1 2 -1 -5 -1 -1 -2 -1 0 0 -1 1 -0 -2 -0 -0 0 -0 -0 0 0 1 0 -0 -0 -0 -2 1 3
-0 -0 -1 -2 -1 -0 -5 -0 3 0 -4 2 0 -1 -1 -3 -2 1 1 0 -1 -1 -0 -1 -2 -1 2 -2 -1 0 -1 1 0 2 1 1 2 2 1 0 -1 2 1 0
-0 -3 -3 1 2 -2 -0 1 1 4 -2 1 -4 0 0 2 2 1 -0 -1 -1 -2 -0 0 -1 0 -1 1 -1 0 -1 -0 1 1 1 2 2 2 2 1 -0 0 3 3
-2 -2 -2 1 5 4 -2 2 6 3 0 -0 -1 -1 -0 0 0 2 0 -1 -0 -1 -1 -0 -3 -1 -2 1 -2 -0 0 0 -1 0 2 2 3 2 1 2 2 1 1 3
-2 -1 -4 -7 2 1 -1 3 4 -3 -0 0 -0 -0 -2 -1 -1 1 1 -1 -0 -0 -2 1 0 -0 -1 -1 -1 -1 1 1 -0 0 1 0 2 3 3 1 1 2 1 2
Height
1492 1487 1483 1479 1473 1467 1466 1465 1475 1457 1454 1450 1447 1442 1438 1447 1453 1454 1450 1448 1449 1444 1437 1434 1432 1432 1434 1433 1432 1430 1429 1426 1429 1434 1438 1433 1433 1433 1433 1434 1433 1433 1432 1432
1511 1486 1481 1477 1471 1466 1461 1455 1455 1457 1463 1457 1449 1446 1452 1454 1456 1455 1449 1454 1451 1446 1439 1436 1435 1434 1432 1430 1427 1427 1428 1430 1431 1432 1432 1432 1430 1430 1429 1428 1426 1426 1425 1425
1515 1486 1482 1491 1471 1467 1464 1462 1460 1470 1470 1464 1458 1454 1453 1453 1453 1449 1448 1448 1447 1442 1437 1437 1438 1437 1436 1434 1432 1430 1430 1430 1431 1431 1430 1430 1429 1429 1428 1426 1423 1422 1420 1418
1514 1491 1523 1475 1469 1467 1468 1470 1471 1468 1464 1460 1456 1454 1454 1454 1452 1448 1447 1445 1444 1436 1436 1438 1437 1436 1435 1434 1431 1430 1429 1428 1429 1428 1427 1427 1427 1426 1425 1423 1420 1418 1417 1415
1517 1515 1486 1469 1470 1471 1470 1473 1468 1467 1464 1462 1460 1458 1456 1453 1449 1446 1445 1444 1440 1439 1439 1436 1435 1431 1428 1427 1425 1424 1425 1426 1425 1425 1423 1422 1421 1422 1419 1417 1415 1413 1413 1411
1524 1521 1515 1472 1471 1466 1463 1475 1466 1466 1464 1461 1457 1462 1453 1451 1450 1447 1445 1443 1439 1436 1434 1433 1430 1426 1425 1423 1421 1419 1418 1416 1416 1417 1416 1415 1415 1414 1413 1411 1409 1408 1408 1407
1530 1518 1488 1474 1469 1465 1481 1476 1462 1461 1458 1457 1458 1455 1450 1447 1444 1443 1441 1439 1436 1433 1430 1426 1424 1423 1419 1418 1416 1414 1413 1410 1408 1406 1407 1408 1407 1406 1405 1404 1403 1403 1402 1402
1510 1524 1501 1469 1468 1473 1471 1464 1461 1457 1454 1450 1449 1446 1444 1441 1439 1435 1432 1429 1429 1427 1425 1421 1417 1413 1408 1406 1406 1405 1403 1400 1398 1397 1398 1397 1398 1397 1396 1396 1395 1395 1394 1394
1488 1482 1467 1466 1467 1466 1464 1460 1457 1455 1451 1448 1445 1443 1441 1438 1435 1431 1428 1426 1422 1417 1412 1410 1408 1408 1404 1402 1400 1396 1392 1389 1389 1389 1387 1388 1386 1386 1386 1386 1387 1387 1386 1385
1479 1469 1467 1466 1463 1461 1460 1458 1454 1451 1449 1445 1443 1440 1438 1435 1433 1430 1427 1422 1418 1413 1408 1405 1404 1403 1400 1397 1394 1390 1384 1382 1380 1378 1378 1379 1375 1375 1375 1376 1378 1378 1377 1376
1473 1467 1463 1461 1460 1458 1455 1452 1449 1446 1445 1442 1440 1437 1434 1430 1428 1425 1422 1417 1413 1408 1404 1401 1398 1395 1391 1386 1382 1376 1371 1368 1367 1367 1367 1367 1367 1365 1364 1365 1367 1369 1368 1369
1470 1461 1462 1459 1456 1454 1453 1450 1447 1444 1441 1438 1435 1432 1429 1425 1422 1418 1414 1409 1406 1401 1396 1392 1388 1384 1381 1378 1374 1369 1364 1360 1358 1356 1356 1357 1357 1355 1355 1353 1355 1360 1360 1361
1459 1458 1457 1455 1454 1451 1450 1448 1445 1442 1438 1434 1430 1427 1424 1421 1417 1412 1409 1405 1401 1395 1390 1385 1380 1375 1371 1367 1364 1360 1355 1352 1349 1346 1343 1341 1340 1341 1341 1344 1346 1348 1351 1352
1453 1453 1452 1451 1450 1449 1447 1445 1441 1438 1435 1431 1426 1422 1418 1415 1412 1409 1405 1400 1396 1390 1384 1379 1373 1369 1364 1358 1353 1348 1344 1340 1336 1333 1331 1330 1329 1329 1330 1333 1334 1337 1341 1343
1448 1448 1449 1449 1448 1446 1444 1440 1436 1433 1429 1425 1422 1417 1414 1411 1408 1404 1401 1396 1391 1386 1381 1375 1369 1363 1357 1351 1346 1340 1335 1330 1326 1322 1320 1318 1318 1318 1319 1320 1322 1324 1328 1333
1446 1447 1447 1446 1445 1442 1439 1436 1433 1429 1426 1422 1418 1414 1411 1408 1405 1402 1398 1393 1387 1381 1377 1371 1364 1358 1352 1346 1340 1333 1327 1322 1317 1313 1309 1307 1306 1306 1306 1307 1309 1312 1314 1318
1443 1445 1445 1444 1442 1439 1436 1433 1431 1428 1423 1419 1415 1412 1409 1406 1403 1399 1395 1390 1385 1379 1373 1366 1359 1353 1347 1340 1333 1326 1320 1314 1309 1304 1300 1298 1296 1295 1295 1296 1297 1299 1302 1306
1439 1441 1442 1442 1439 1436 1433 1431 1428 1425 1420 1416 1412 1410 1407 1404 1400 1396 1391 1386 1380 1375 1369 1363 1356 1349 1342 1335 1328 1321 1314 1307 1301 1296 1292 1288 1285 1284 1285 1286 1289 1292 1294 1298
1438 1440 1440 1439 1437 1433 1430 1428 1425 1422 1418 1413 1409 1406 1404 1401 1397 1393 1388 1383 1376 1370 1363 1357 1351 1345 1339 1332 1325 1318 1310 1303 1297 1291 1286 1282 1279 1277 1279 1281 1283 1286 1289 1292
1439 1438 1438 1437 1433 1431 1428 1426 1422 1419 1416 1410 1406 1403 1400 1397 1394 1390 1386 1381 1376 1370 1362 1355 1349 1343 1336 1329 1322 1316 1308 1302 1296 1290 1285 1281 1278 1276 1277 1278 1280 1282 1285 1289
1437 1437 1436 1432 1430 1427 1425 1422 1419 1416 1413 1408 1404 1400 1397 1394 1391 1388 1383 1378 1373 1366 1360 1354 1347 1341 1335 1328 1321 1315 1308 1302 1297 1291 1286 1283 1280 1278 1278 1279 1281 1283 1286 1289
1435 1433 1431 1429 1427 1424 1422 1418 1416 1413 1410 1406 1402 1399 1395 1391 1388 1385 1382 1377 1370 1364 1358 1352 1346 1340 1335 1329 1322 1316 1310 1305 1299 1294 1290 1287 1285 1283 1283 1283 1284 1286 1289 1293
1432 1430 1428 1426 1423 1420 1418 1416 1412 1409 1407 1404 1400 1396 1393 1389 1386 1383 1379 1375 1369 1363 1358 1352 1346 1340 1335 1330 1324 1319 1313 1308 1303 1299 1295 1292 1290 1289 1289 1289 1290 1292 1295 1298
1427 1426 1424 1422 1419 1416 1413 1411 1408 1406 1404 1401 1398 1394 1391 1387 1384 1382 1379 1374 1368 1363 1358 1354 1348 1342 1337 1332 1327 1322 1317 1313 1309 1305 1302 1299 1297 1296 1296 1296 1297 1299 1302 1305
1423 1422 1420 1418 1415 1411 1408 1406 1404 1402 1399 1398 1395 1392 1389 1386 1383 1380 1376 1372 1368 1363 1359 1355 1350 1345 1340 1335 1330 1326 1322 1319 1315 1312 1309 1307 1305 1304 1304 1305 1306 1307 1310 1313
1419 1418 1416 1414 1412 1409 1405 1402 1399 1397 1395 1393 1391 1388 1385 1383 1380 1378 1375 1371 1367 1363 1360 1355 1351 1347 1343 1338 1335 1331 1328 1325 1322 1319 1317 1315 1314 1313 1313 1313 1314 1316 1318 1321
1415 1413 1410 1408 1406 1403 1401 1398 1395 1392 1391 1388 1386 1384 1381 1380 1377 1375 1373 1370 1366 1363 1360 1357 1353 1350 1346 1342 1339 1336 1333 1330 1328 1326 1324 1322 1321 1321 1321 1322 1323 1325 1327 1330